SCP
0 0 0 0 0 0 0 0 0 -0 0 -0 -0 0 0 0 0 0 0 0 0 0 0 0 0 0 0 0 0 0 0 0 0 0 0 0 0 0 0 0 0 0 0 0
0 0 0 0 0 0 0 0 0 0 0 0 -0 -0 0 0 0 0 0 0 0 0 0 0 1 1 0 0 0 0 0 0 0 0 0 0 0 0 0 0 0 0 0 0
0 0 0 0 0 0 0 0 0 0 0 0 -0 -0 0 0 0 0 0 0 0 0 0 0 1 1 0 0 0 0 0 0 0 0 0 0 0 0 0 0 0 0 0 0
0 0 0 0 0 0 0 0 0 0 0 0 0 -0 -0 0 0 0 0 0 0 0 0 0 1 1 1 1 0 0 0 0 0 0 0 0 0 0 0 0 0 0 0 0
0 0 0 0 0 0 0 0 0 0 0 0 0 0 -0 -0 0 0 0 0 0 0 0 0 1 1 1 1 0 0 0 0 0 0 0 0 0 0 0 0 0 0 0 0
0 0 0 0 0 0 0 0 0 0 0 0 0 0 -0 -0 -0 0 0 0 0 0 0 0 0 0 0 0 1 0 0 0 0 0 0 0 0 0 0 0 0 0 0 0
0 0 0 0 0 0 0 0 0 0 0 0 0 0 -0 0 -0 0 0 0 0 0 0 0 0 0 0 0 0 0 0 0 0 0 0 0 0 0 0 0 0 0 0 0
0 0 0 0 0 0 0 0 0 0 0 0 -0 0 -0 -0 -0 0 0 0 0 0 0 0 0 0 0 0 0 0 0 0 0 0 0 0 0 0 0 0 0 0 0 0
0 0 0 0 0 0 0 0 0 0 0 0 -0 -0 0 0 0 0 0 0 0 0 0 0 0 0 0 0 0 0 0 0 0 0 0 0 0 0 -0 -0 -0 -0 -0 0
0 0 0 0 0 0 0 0 0 0 0 -0 0 -0 0 -0 -0 -0 -0 0 0 0 0 0 0 0 0 0 0 0 0 0 0 0 0 0 0 -0 -0 -0 -0 -0 -0 -0
0 0 0 0 0 0 0 0 0 0 0 0 -0 -0 -0 -0 0 0 0 0 0 0 0 0 0 0 0 0 0 0 0 0 0 0 0 0 0 -0 -0 -0 -0 -0 -0 -0
0 0 0 0 0 0 0 0 0 0 0 0 0 -0 -0 -0 -0 -0 -0 0 0 0 0 0 0 0 0 0 0 0 0 0 0 0 0 0 0 0 0 0 0 0 0 0
0 0 0 0 0 0 0 0 0 0 0 0 0 0 -0 0 -0 -0 -0 -0 0 0 0 0 0 0 0 0 0 0 0 0 0 0 0 0 0 0 0 0 0 0 0 0
0 0 0 0 0 0 0 0 0 0 0 0 0 -0 -0 -0 0 0 -0 -0 -0 0 0 0 0 0 0 0 0 0 0 0 0 0 0 0 0 0 0 0 0 0 0 0
0 0 0 0 0 0 0 0 0 0 0 0 0 -0 0 -0 -0 0 0 -0 -0 0 0 0 0 0 0 0 0 0 0 0 0 0 0 0 0 0 0 0 0 0 0 0
0 0 0 0 0 0 0 0 0 0 0 0 0 0 0 0 0 0 0 0 0 0 0 0 0 0 0 0 0 0 0 0 0 0 0 0 0 0 0 0 0 0 0 0
0 0 0 0 0 0 0 0 0 0 0 0 0 0 0 0 0 0 0 0 0 0 0 0 0 0 0 0 0 0 0 0 0 0 0 0 0 0 0 0 0 0 0 0
0 0 0 0 0 0 0 0 0 0 0 0 0 0 0 0 0 0 0 0 0 0 0 0 0 0 0 0 0 0 0 0 0 0 0 0 0 0 0 0 0 0 0 0
0 0 0 0 0 0 0 0 0 0 0 0 0 0 0 -0 0 0 0 0 0 0 0 0 0 0 0 0 0 0 0 0 0 0 0 0 0 0 0 0 0 0 0 0
0 0 0 0 0 0 0 0 0 0 0 0 0 0 0 0 0 0 0 0 0 0 0 0 0 0 0 0 0 0 0 0 0 0 0 0 0 0 0 0 0 0 0 0
0 0 0 0 0 0 0 0 0 0 0 0 0 0 0 0 0 0 0 0 0 0 0 0 0 0 0 0 0 0 0 0 0 0 0 0 0 0 0 0 0 0 0 0
0 0 0 0 0 0 0 0 0 0 0 0 0 0 0 0 0 0 0 0 0 0 0 0 0 0 0 0 0 0 0 0 0 0 0 0 0 0 0 0 0 0 0 0
0 0 0 0 0 0 0 0 0 0 0 0 0 0 0 0 0 0 0 0 0 0 0 0 0 0 0 0 0 0 0 0 0 0 0 0 0 0 0 0 0 0 0 0
0 0 0 0 0 0 0 0 0 0 0 0 0 0 0 0 -0 -0 -0 -0 0 0 0 0 0 0 0 0 0 0 0 0 0 0 0 0 0 0 0 0 0 0 0 0
0 0 0 0 0 0 0 0 0 0 0 0 0 0 0 0 0 0 -0 -0 0 0 0 0 0 0 0 0 0 0 0 0 0 0 0 0 0 0 0 0 0 0 0 0
0 0 0 0 0 0 0 0 0 0 0 0 0 0 0 0 0 0 0 0 0 0 0 0 0 0 0 0 0 0 0 0 0 0 0 0 0 0 0 0 0 0 0 0
Wind_Speed_500mb
5 8 6 13 8 11 13 15 22 28 23 16 29 41 40 54 61 50 57 67 66 56 58 68 59 44 35 39 73 68 67 65 59 68 65 64 62 52 50 43 41 40 38 36
12 1 7 13 13 11 15 23 31 22 12 26 29 36 46 35 42 59 56 62 74 76 66 74 67 57 45 25 32 73 65 64 59 59 72 68 62 55 51 49 47 44 42 40
4 6 14 10 13 13 10 16 20 27 31 19 19 21 13 21 35 59 61 67 75 74 75 79 76 68 59 47 27 46 74 64 61 55 53 68 66 62 58 59 55 54 51 46
3 10 10 13 7 8 16 9 20 26 16 8 10 13 7 18 24 15 38 47 58 41 54 75 83 84 77 57 60 47 53 66 61 56 59 59 63 67 65 62 56 50 47 46
5 11 13 6 5 5 15 21 27 23 21 18 9 7 12 32 28 34 18 9 24 14 38 65 87 85 73 72 64 54 48 41 61 61 58 61 61 64 61 61 58 51 47 44
8 10 5 5 12 7 17 18 9 6 8 5 4 9 7 14 20 29 25 36 8 7 17 48 63 69 67 64 49 44 49 45 24 52 54 54 56 56 58 61 53 57 56 54
9 6 3 4 9 4 8 9 7 7 6 8 15 2 1 19 27 15 24 38 31 16 8 14 38 40 46 53 55 51 45 37 33 25 40 46 49 37 32 6 23 39 44 55
11 13 7 5 2 6 8 6 4 8 6 11 16 18 5 12 11 31 42 37 35 31 23 13 10 30 46 50 50 52 46 41 34 44 48 50 30 9 14 15 25 29 22 26
8 10 8 5 4 2 9 4 5 7 2 4 7 6 6 20 20 18 28 49 47 38 27 17 10 3 18 31 42 53 51 51 48 53 49 38 20 11 31 28 1 13 12 26
2 10 4 11 5 9 5 11 8 5 9 8 10 6 14 36 30 20 23 31 36 34 30 21 13 7 3 10 18 34 48 53 49 46 36 25 7 14 24 36 36 42 39 21
2 5 12 6 7 5 8 7 5 3 2 4 7 6 6 13 15 15 22 32 32 30 26 21 15 12 8 5 16 18 33 39 35 30 29 30 31 31 28 26 30 27 28 19
1 4 7 6 10 4 3 4 4 3 8 4 5 9 7 14 16 23 27 29 26 24 20 18 16 16 17 19 23 32 42 40 44 36 24 24 26 31 28 26 28 25 21 18
6 4 7 14 10 10 6 8 5 6 3 2 4 10 13 28 20 20 19 21 21 20 20 20 21 25 31 37 40 41 44 41 33 34 34 39 38 36 31 32 32 31 29 27
5 1 6 8 8 3 11 13 10 5 2 4 7 14 24 31 19 17 15 16 18 20 23 24 26 29 32 39 41 37 32 24 26 32 40 42 39 40 39 37 36 36 34 32
7 4 6 15 20 5 9 19 13 4 4 5 10 12 14 27 23 7 8 14 16 18 23 27 30 31 33 36 42 33 28 37 41 43 44 46 45 43 41 40 37 35 31 27
4 3 5 10 7 10 8 12 12 11 11 7 13 9 28 53 17 18 9 11 16 19 20 23 27 30 33 34 37 40 42 42 40 43 47 45 43 41 38 34 28 24 20 17
7 5 5 9 11 12 4 7 6 6 3 6 8 11 34 14 30 38 25 8 16 21 20 20 22 23 26 28 29 33 35 35 36 40 42 38 35 31 28 24 19 17 15 16
7 2 3 8 10 6 8 3 2 15 1 10 10 14 27 8 33 46 34 23 27 25 23 20 19 20 22 23 25 30 31 31 33 34 32 29 23 19 18 14 12 14 16 17
15 5 1 1 3 10 7 3 1 4 1 14 14 25 25 20 17 46 39 33 33 29 27 26 21 21 22 24 24 23 24 23 21 21 18 15 12 9 8 9 12 16 18 18
11 7 7 7 6 8 8 5 5 6 5 9 12 22 27 8 10 10 32 30 38 34 34 30 28 25 24 27 19 15 17 13 11 10 7 5 5 8 10 12 15 18 18 18
3 0 8 5 4 14 14 13 4 10 7 7 9 24 37 24 17 16 29 32 31 31 32 30 24 25 28 21 15 10 9 5 6 7 8 10 12 14 16 17 19 21 23 25
13 11 7 3 5 13 16 2 5 8 24 18 18 20 29 26 23 25 25 25 25 28 26 24 21 18 14 13 15 16 16 15 14 15 17 19 21 21 23 24 24 25 26 28
4 11 7 15 11 11 8 7 9 19 26 31 20 21 19 20 17 13 7 3 5 6 8 7 3 3 6 8 9 11 16 19 22 26 30 32 33 33 32 30 29 29 29 31
8 14 5 5 8 20 22 15 18 22 22 24 27 16 17 12 16 16 16 6 6 6 7 7 9 13 17 20 23 26 28 31 34 36 38 39 39 39 41 41 38 36 34 34
9 17 10 9 15 21 31 32 18 24 23 22 26 26 27 26 23 18 14 13 12 13 13 14 17 22 24 26 29 31 33 34 37 40 42 45 49 51 49 48 48 46 42 40
22 13 9 12 19 16 10 8 9 16 21 29 25 29 31 30 26 22 19 18 16 16 20 22 23 25 27 29 31 33 35 36 36 36 37 40 42 45 47 46 45 44 44 42
Wind_Direction_500mb
7 45 324 283 245 256 272 280 281 287 298 284 281 290 292 289 283 279 274 264 254 251 248 230 218 208 188 190 210 217 217 221 225 221 218 214 220 221 223 228 237 239 238 238
18 10 334 288 282 301 297 290 286 289 280 308 286 281 282 262 263 260 253 249 255 256 257 235 221 206 202 186 217 217 222 220 224 225 224 221 225 230 231 237 240 242 241 242
148 285 355 28 347 347 281 265 298 292 314 266 281 275 267 286 269 258 246 237 247 251 246 229 219 209 200 191 202 231 223 224 223 227 229 228 230 233 235 238 241 243 245 244
264 343 1 351 339 360 318 10 328 302 320 311 40 292 322 306 303 288 225 230 238 233 229 224 211 208 210 203 189 197 228 226 224 229 226 227 226 226 231 238 245 249 238 243
261 332 345 346 338 320 262 310 288 288 292 299 305 252 292 348 347 337 311 246 228 236 223 202 210 212 205 198 190 212 222 214 229 233 237 235 231 233 241 243 242 244 246 242
281 278 193 249 296 219 279 295 261 235 284 276 215 177 323 350 328 347 349 23 62 201 190 200 201 210 212 202 194 206 211 201 200 228 234 236 244 245 243 245 252 245 241 233
328 265 263 230 317 269 336 320 332 352 4 268 346 14 309 343 355 339 335 8 29 47 92 196 207 211 223 219 208 209 210 203 196 203 224 230 220 217 218 137 234 228 233 236
18 343 346 2 24 290 313 335 15 301 336 320 359 346 316 11 18 349 359 15 21 30 39 61 194 207 206 217 212 209 221 214 210 202 206 209 207 225 323 342 38 47 57 80
352 288 317 211 268 265 321 24 236 263 76 332 293 327 198 354 354 20 7 12 11 12 13 15 35 199 222 220 217 212 214 221 217 208 194 204 208 68 50 44 330 344 277 273
16 297 266 295 314 255 240 323 14 1 6 340 316 20 343 341 351 358 352 13 11 6 9 10 7 10 276 232 236 215 208 208 202 195 193 185 336 20 83 59 71 83 97 131
322 229 297 5 9 305 344 359 336 246 33 325 324 295 328 300 320 346 1 14 13 14 10 15 28 37 48 151 185 158 156 163 159 136 116 118 114 115 111 123 125 132 135 160
119 258 283 266 291 299 256 324 6 360 336 292 277 274 346 340 350 359 8 21 25 29 30 35 55 69 83 95 112 132 122 121 119 108 112 116 140 130 136 147 152 165 170 153
319 291 330 345 351 359 2 316 328 262 246 295 327 288 335 345 355 1 19 31 35 42 55 67 82 93 99 102 106 107 109 110 112 128 140 144 137 130 131 130 130 130 129 124
79 252 220 209 225 83 294 310 307 262 288 282 238 298 338 342 336 358 34 49 52 57 68 78 90 95 104 110 109 103 90 81 119 133 142 132 128 126 123 119 118 116 112 108
88 152 325 278 275 233 263 294 309 277 277 262 313 322 340 329 311 4 33 68 68 68 76 82 90 96 100 105 114 132 136 128 131 132 125 118 117 115 117 116 112 108 106 99
43 257 53 302 351 14 275 347 359 36 350 345 316 301 348 328 16 27 28 70 86 85 79 86 93 98 99 103 110 116 121 125 129 123 116 114 115 113 109 106 103 98 90 84
105 93 49 277 342 333 64 311 32 115 15 301 8 303 320 342 21 15 3 55 86 91 90 88 95 97 100 105 111 114 116 119 121 117 114 113 112 112 107 98 87 72 54 38
132 129 101 265 1 38 246 340 119 132 124 10 309 316 324 64 49 42 50 78 99 92 87 85 84 93 100 105 117 118 120 122 120 119 119 117 112 103 94 78 51 30 17 3
202 128 156 348 280 292 324 278 293 221 303 360 336 331 332 294 282 27 44 70 89 103 96 90 85 89 99 107 113 124 125 120 117 112 106 97 85 72 56 23 2 353 348 344
173 120 114 41 122 207 243 290 326 142 303 359 13 358 354 96 68 352 41 70 84 90 93 90 88 91 102 96 98 117 115 111 103 90 72 39 3 349 335 330 332 335 333 329
82 141 211 208 226 284 253 281 140 74 245 119 93 70 58 67 80 74 68 62 61 67 77 74 68 61 62 71 73 75 60 32 13 354 335 323 315 308 306 310 318 322 323 320
171 149 200 91 207 279 210 296 211 175 154 138 139 126 107 100 94 74 66 58 63 62 58 51 45 37 32 9 346 334 317 296 303 306 305 304 301 298 297 298 300 303 304 303
238 185 177 182 215 232 198 207 188 181 174 188 180 157 142 132 108 87 85 94 90 102 111 120 120 302 311 311 310 307 303 307 308 308 306 303 298 291 282 278 281 285 289 291
232 186 186 101 256 238 231 222 220 205 199 202 206 208 198 180 179 165 153 160 278 301 293 296 302 301 303 305 307 308 309 310 308 306 304 303 303 301 294 283 275 273 274 277
201 153 186 260 270 268 264 263 245 220 219 209 216 222 233 232 227 233 238 250 266 280 292 297 298 300 301 301 301 301 303 307 309 307 306 305 303 299 294 291 284 275 272 272
192 186 170 228 218 212 210 227 203 213 235 231 233 233 236 234 234 237 244 259 269 283 295 301 302 301 302 304 304 304 305 307 308 310 314 314 312 306 300 294 289 284 278 274
Wind_Speed_850mb
5 8 6 13 8 11 13 15 22 28 23 16 29 41 40 54 61 50 57 67 66 56 58 68 59 44 35 39 73 68 67 65 59 68 65 64 62 52 50 43 41 40 38 36
12 1 7 13 13 11 15 23 31 22 12 26 29 36 46 35 42 59 56 62 74 76 66 74 67 57 45 25 32 73 65 64 59 59 72 68 62 55 51 49 47 44 42 40
4 6 14 10 13 13 10 16 20 27 31 19 19 21 13 21 35 59 61 67 75 74 75 79 76 68 59 47 27 46 74 64 61 55 53 68 66 62 58 59 55 54 51 46
3 10 10 13 7 8 16 9 20 26 16 8 10 13 7 18 24 15 38 47 58 41 54 75 83 84 77 57 60 47 53 66 61 56 59 59 63 67 65 62 56 50 47 46
5 11 13 6 5 5 15 21 27 23 21 18 9 7 12 32 28 34 18 9 24 14 38 65 87 85 73 72 64 54 48 41 61 61 58 61 61 64 61 61 58 51 47 44
8 10 5 5 12 7 17 18 9 6 8 5 4 9 7 14 20 29 25 36 8 7 17 48 63 69 67 64 49 44 49 45 24 52 54 54 56 56 58 61 53 57 56 54
9 6 3 4 9 4 8 9 7 7 6 8 15 2 1 19 27 15 24 38 31 16 8 14 38 40 46 53 55 51 45 37 33 25 40 46 49 37 32 6 23 39 44 55
11 13 7 5 2 6 8 6 4 8 6 11 16 18 5 12 11 31 42 37 35 31 23 13 10 30 46 50 50 52 46 41 34 44 48 50 30 9 14 15 25 29 22 26
8 10 8 5 4 2 9 4 5 7 2 4 7 6 6 20 20 18 28 49 47 38 27 17 10 3 18 31 42 53 51 51 48 53 49 38 20 11 31 28 1 13 12 26
2 10 4 11 5 9 5 11 8 5 9 8 10 6 14 36 30 20 23 31 36 34 30 21 13 7 3 10 18 34 48 53 49 46 36 25 7 14 24 36 36 42 39 21
2 5 12 6 7 5 8 7 5 3 2 4 7 6 6 13 15 15 22 32 32 30 26 21 15 12 8 5 16 18 33 39 35 30 29 30 31 31 28 26 30 27 28 19
1 4 7 6 10 4 3 4 4 3 8 4 5 9 7 14 16 23 27 29 26 24 20 18 16 16 17 19 23 32 42 40 44 36 24 24 26 31 28 26 28 25 21 18
6 4 7 14 10 10 6 8 5 6 3 2 4 10 13 28 20 20 19 21 21 20 20 20 21 25 31 37 40 41 44 41 33 34 34 39 38 36 31 32 32 31 29 27
5 1 6 8 8 3 11 13 10 5 2 4 7 14 24 31 19 17 15 16 18 20 23 24 26 29 32 39 41 37 32 24 26 32 40 42 39 40 39 37 36 36 34 32
7 4 6 15 20 5 9 19 13 4 4 5 10 12 14 27 23 7 8 14 16 18 23 27 30 31 33 36 42 33 28 37 41 43 44 46 45 43 41 40 37 35 31 27
4 3 5 10 7 10 8 12 12 11 11 7 13 9 28 53 17 18 9 11 16 19 20 23 27 30 33 34 37 40 42 42 40 43 47 45 43 41 38 34 28 24 20 17
7 5 5 9 11 12 4 7 6 6 3 6 8 11 34 14 30 38 25 8 16 21 20 20 22 23 26 28 29 33 35 35 36 40 42 38 35 31 28 24 19 17 15 16
7 2 3 8 10 6 8 3 2 15 1 10 10 14 27 8 33 46 34 23 27 25 23 20 19 20 22 23 25 30 31 31 33 34 32 29 23 19 18 14 12 14 16 17
15 5 1 1 3 10 7 3 1 4 1 14 14 25 25 20 17 46 39 33 33 29 27 26 21 21 22 24 24 23 24 23 21 21 18 15 12 9 8 9 12 16 18 18
11 7 7 7 6 8 8 5 5 6 5 9 12 22 27 8 10 10 32 30 38 34 34 30 28 25 24 27 19 15 17 13 11 10 7 5 5 8 10 12 15 18 18 18
3 0 8 5 4 14 14 13 4 10 7 7 9 24 37 24 17 16 29 32 31 31 32 30 24 25 28 21 15 10 9 5 6 7 8 10 12 14 16 17 19 21 23 25
13 11 7 3 5 13 16 2 5 8 24 18 18 20 29 26 23 25 25 25 25 28 26 24 21 18 14 13 15 16 16 15 14 15 17 19 21 21 23 24 24 25 26 28
4 11 7 15 11 11 8 7 9 19 26 31 20 21 19 20 17 13 7 3 5 6 8 7 3 3 6 8 9 11 16 19 22 26 30 32 33 33 32 30 29 29 29 31
8 14 5 5 8 20 22 15 18 22 22 24 27 16 17 12 16 16 16 6 6 6 7 7 9 13 17 20 23 26 28 31 34 36 38 39 39 39 41 41 38 36 34 34
9 17 10 9 15 21 31 32 18 24 23 22 26 26 27 26 23 18 14 13 12 13 13 14 17 22 24 26 29 31 33 34 37 40 42 45 49 51 49 48 48 46 42 40
22 13 9 12 19 16 10 8 9 16 21 29 25 29 31 30 26 22 19 18 16 16 20 22 23 25 27 29 31 33 35 36 36 36 37 40 42 45 47 46 45 44 44 42
Wind_Direction_850mb
7 45 324 283 245 256 272 280 281 287 298 284 281 290 292 289 283 279 274 264 254 251 248 230 218 208 188 190 210 217 217 221 225 221 218 214 220 221 223 228 237 239 238 238
18 10 334 288 282 301 297 290 286 289 280 308 286 281 282 262 263 260 253 249 255 256 257 235 221 206 202 186 217 217 222 220 224 225 224 221 225 230 231 237 240 242 241 242
148 285 355 28 347 347 281 265 298 292 314 266 281 275 267 286 269 258 246 237 247 251 246 229 219 209 200 191 202 231 223 224 223 227 229 228 230 233 235 238 241 243 245 244
264 343 1 351 339 360 318 10 328 302 320 311 40 292 322 306 303 288 225 230 238 233 229 224 211 208 210 203 189 197 228 226 224 229 226 227 226 226 231 238 245 249 238 243
261 332 345 346 338 320 262 310 288 288 292 299 305 252 292 348 347 337 311 246 228 236 223 202 210 212 205 198 190 212 222 214 229 233 237 235 231 233 241 243 242 244 246 242
281 278 193 249 296 219 279 295 261 235 284 276 215 177 323 350 328 347 349 23 62 201 190 200 201 210 212 202 194 206 211 201 200 228 234 236 244 245 243 245 252 245 241 233
328 265 263 230 317 269 336 320 332 352 4 268 346 14 309 343 355 339 335 8 29 47 92 196 207 211 223 219 208 209 210 203 196 203 224 230 220 217 218 137 234 228 233 236
18 343 346 2 24 290 313 335 15 301 336 320 359 346 316 11 18 349 359 15 21 30 39 61 194 207 206 217 212 209 221 214 210 202 206 209 207 225 323 342 38 47 57 80
352 288 317 211 268 265 321 24 236 263 76 332 293 327 198 354 354 20 7 12 11 12 13 15 35 199 222 220 217 212 214 221 217 208 194 204 208 68 50 44 330 344 277 273
16 297 266 295 314 255 240 323 14 1 6 340 316 20 343 341 351 358 352 13 11 6 9 10 7 10 276 232 236 215 208 208 202 195 193 185 336 20 83 59 71 83 97 131
322 229 297 5 9 305 344 359 336 246 33 325 324 295 328 300 320 346 1 14 13 14 10 15 28 37 48 151 185 158 156 163 159 136 116 118 114 115 111 123 125 132 135 160
119 258 283 266 291 299 256 324 6 360 336 292 277 274 346 340 350 359 8 21 25 29 30 35 55 69 83 95 112 132 122 121 119 108 112 116 140 130 136 147 152 165 170 153
319 291 330 345 351 359 2 316 328 262 246 295 327 288 335 345 355 1 19 31 35 42 55 67 82 93 99 102 106 107 109 110 112 128 140 144 137 130 131 130 130 130 129 124
79 252 220 209 225 83 294 310 307 262 288 282 238 298 338 342 336 358 34 49 52 57 68 78 90 95 104 110 109 103 90 81 119 133 142 132 128 126 123 119 118 116 112 108
88 152 325 278 275 233 263 294 309 277 277 262 313 322 340 329 311 4 33 68 68 68 76 82 90 96 100 105 114 132 136 128 131 132 125 118 117 115 117 116 112 108 106 99
43 257 53 302 351 14 275 347 359 36 350 345 316 301 348 328 16 27 28 70 86 85 79 86 93 98 99 103 110 116 121 125 129 123 116 114 115 113 109 106 103 98 90 84
105 93 49 277 342 333 64 311 32 115 15 301 8 303 320 342 21 15 3 55 86 91 90 88 95 97 100 105 111 114 116 119 121 117 114 113 112 112 107 98 87 72 54 38
132 129 101 265 1 38 246 340 119 132 124 10 309 316 324 64 49 42 50 78 99 92 87 85 84 93 100 105 117 118 120 122 120 119 119 117 112 103 94 78 51 30 17 3
202 128 156 348 280 292 324 278 293 221 303 360 336 331 332 294 282 27 44 70 89 103 96 90 85 89 99 107 113 124 125 120 117 112 106 97 85 72 56 23 2 353 348 344
173 120 114 41 122 207 243 290 326 142 303 359 13 358 354 96 68 352 41 70 84 90 93 90 88 91 102 96 98 117 115 111 103 90 72 39 3 349 335 330 332 335 333 329
82 141 211 208 226 284 253 281 140 74 245 119 93 70 58 67 80 74 68 62 61 67 77 74 68 61 62 71 73 75 60 32 13 354 335 323 315 308 306 310 318 322 323 320
171 149 200 91 207 279 210 296 211 175 154 138 139 126 107 100 94 74 66 58 63 62 58 51 45 37 32 9 346 334 317 296 303 306 305 304 301 298 297 298 300 303 304 303
238 185 177 182 215 232 198 207 188 181 174 188 180 157 142 132 108 87 85 94 90 102 111 120 120 302 311 311 310 307 303 307 308 308 306 303 298 291 282 278 281 285 289 291
232 186 186 101 256 238 231 222 220 205 199 202 206 208 198 180 179 165 153 160 278 301 293 296 302 301 303 305 307 308 309 310 308 306 304 303 303 301 294 283 275 273 274 277
201 153 186 260 270 268 264 263 245 220 219 209 216 222 233 232 227 233 238 250 266 280 292 297 298 300 301 301 301 301 303 307 309 307 306 305 303 299 294 291 284 275 272 272
192 186 170 228 218 212 210 227 203 213 235 231 233 233 236 234 234 237 244 259 269 283 295 301 302 301 302 304 304 304 305 307 308 310 314 314 312 306 300 294 289 284 278 274